• In Denmark
  • List of Countries
  • For 7 days
  • Water Temperature
  • Satellite Maps
  • Weather Map
  • Weather Widgets
  • user-avatar
    Login

    Hourly Weather Jewłach

    Today, 20 June, Wednesday

    Time Temperature Precipitation Wind Pressure Humidity
    00:00 +25°C° 0 mm 2 mps 759 mmHg 45%
    01:00 +25°C° 0 mm 2 mps 759 mmHg 47%
    02:00 +24°C° 0 mm 1 mps 759 mmHg 49%
    03:00 +24°C° 0 mm 1 mps 759 mmHg 51%
    04:00 +24°C° 0 mm 1 mps 759 mmHg 51%
    05:00 +25°C° 0 mm 1 mps 759 mmHg 50%
    06:00 +25°C° 0 mm 1 mps 759 mmHg 50%
    07:00 +26°C° 0 mm 1 mps 759 mmHg 46%
    08:00 +28°C° 0 mm 1 mps 759 mmHg 42%
    09:00 +29°C° 0 mm 2 mps 759 mmHg 38%
    10:00 +30°C° 0 mm 2 mps 759 mmHg 35%
    11:00 +31°C° 0 mm 2 mps 758 mmHg 33%
    12:00 +32°C° 0 mm 2 mps 758 mmHg 31%
    13:00 +34°C° 0 mm 2 mps 758 mmHg 30%
    14:00 +34°C° 0 mm 2 mps 758 mmHg 29%
    15:00 +35°C° 0 mm 2 mps 758 mmHg 28%
    16:00 +34°C° 0 mm 2 mps 758 mmHg 29%
    17:00 +34°C° 0 mm 2 mps 758 mmHg 31%
    18:00 +34°C° 0 mm 2 mps 758 mmHg 32%
    19:00 +32°C° 0 mm 2 mps 759 mmHg 34%
    20:00 +30°C° 0 mm 2 mps 760 mmHg 36%
    21:00 +29°C° 0 mm 3 mps 760 mmHg 38%
    22:00 +28°C° 0 mm 3 mps 760 mmHg 39%
    23:00 +27°C° 0 mm 3 mps 760 mmHg 41%

    Tomorrow, 21 June, Thursday

    Time Temperature Precipitation Wind Pressure Humidity
    00:00 +26°C° 0 mm 2 mps 760 mmHg 42%
    01:00 +26°C° 0 mm 2 mps 760 mmHg 44%
    02:00 +25°C° 0 mm 2 mps 761 mmHg 45%
    03:00 +24°C° 0 mm 1 mps 761 mmHg 47%
    04:00 +25°C° 0 mm 1 mps 761 mmHg 46%
    05:00 +26°C° 0 mm 1 mps 761 mmHg 45%
    06:00 +24°C° 0 mm 0 mps 761 mmHg 44%
    07:00 +28°C° 0 mm 1 mps 761 mmHg 40%
    08:00 +29°C° 0 mm 1 mps 761 mmHg 37%
    09:00 +31°C° 0 mm 2 mps 760 mmHg 33%
    10:00 +32°C° 0 mm 2 mps 760 mmHg 31%
    11:00 +34°C° 0 mm 2 mps 760 mmHg 29%
    12:00 +35°C° 0 mm 2 mps 759 mmHg 28%
    13:00 +36°C° 0 mm 3 mps 759 mmHg 27%
    14:00 +36°C° 0 mm 3 mps 758 mmHg 26%
    15:00 +37°C° 0 mm 3 mps 758 mmHg 25%
    16:00 +37°C° 0 mm 3 mps 758 mmHg 26%
    17:00 +36°C° 0 mm 3 mps 758 mmHg 27%
    18:00 +36°C° 0 mm 3 mps 758 mmHg 28%
    19:00 +34°C° 0 mm 4 mps 758 mmHg 31%
    20:00 +32°C° 0 mm 4 mps 759 mmHg 34%
    21:00 +30°C° 0 mm 4 mps 759 mmHg 37%
    22:00 +29°C° 0 mm 3 mps 759 mmHg 39%
    23:00 +28°C° 0 mm 3 mps 759 mmHg 40%

    Day after tomorrow, 22 June, Friday

    Time Temperature Precipitation Wind Pressure Humidity
    00:00 +27°C° 0 mm 3 mps 759 mmHg 41%
    01:00 +26°C° 0 mm 2 mps 759 mmHg 42%
    02:00 +26°C° 0 mm 2 mps 759 mmHg 43%
    03:00 +25°C° 0 mm 2 mps 759 mmHg 44%
    04:00 +26°C° 0 mm 1 mps 759 mmHg 43%
    05:00 +27°C° 0 mm 1 mps 759 mmHg 42%
    06:00 +27°C° 0 mm 1 mps 758 mmHg 41%
    07:00 +29°C° 0 mm 1 mps 758 mmHg 37%
    08:00 +31°C° 0 mm 2 mps 758 mmHg 32%
    09:00 +32°C° 0 mm 2 mps 758 mmHg 27%
    10:00 +34°C° 0 mm 3 mps 757 mmHg 25%
    11:00 +36°C° 0 mm 3 mps 757 mmHg 24%
    12:00 +37°C° 0 mm 4 mps 756 mmHg 22%
    13:00 +37°C° 0 mm 4 mps 756 mmHg 21%
    14:00 +39°C° 0 mm 5 mps 755 mmHg 19%
    15:00 +40°C° 0 mm 5 mps 755 mmHg 18%
    16:00 +39°C° 0 mm 5 mps 754 mmHg 19%
    17:00 +37°C° 0 mm 5 mps 754 mmHg 19%
    18:00 +36°C° 0 mm 5 mps 754 mmHg 20%
    19:00 +34°C° 0 mm 5 mps 755 mmHg 23%
    20:00 +32°C° 0 mm 4 mps 755 mmHg 26%
    21:00 +29°C° 0 mm 3 mps 756 mmHg 28%
    22:00 +28°C° 0 mm 3 mps 756 mmHg 29%
    23:00 +28°C° 0 mm 2 mps 756 mmHg 30%

    23 June, Saturday

    Time Temperature Precipitation Wind Pressure Humidity
    00:00 +27°C° 0 mm 2 mps 756 mmHg 32%
    01:00 +27°C° 0 mm 2 mps 756 mmHg 32%
    02:00 +26°C° 0 mm 1 mps 756 mmHg 33%
    03:00 +26°C° 0 mm 1 mps 756 mmHg 34%
    04:00 +26°C° 0 mm 1 mps 756 mmHg 34%
    05:00 +27°C° 0 mm 1 mps 756 mmHg 33%
    06:00 +28°C° 0 mm 1 mps 756 mmHg 32%
    07:00 +29°C° 0 mm 1 mps 756 mmHg 30%
    08:00 +31°C° 0 mm 2 mps 756 mmHg 27%
    09:00 +32°C° 0 mm 2 mps 755 mmHg 24%
    10:00 +34°C° 0 mm 2 mps 755 mmHg 23%
    11:00 +35°C° 0 mm 1 mps 755 mmHg 22%
    12:00 +36°C° 0 mm 1 mps 754 mmHg 21%
    13:00 +36°C° 0 mm 1 mps 754 mmHg 20%
    14:00 +37°C° 0 mm 1 mps 753 mmHg 20%
    15:00 +37°C° 0 mm 1 mps 753 mmHg 20%
    16:00 +37°C° 0 mm 1 mps 753 mmHg 21%
    17:00 +37°C° 0 mm 1 mps 753 mmHg 22%
    18:00 +36°C° 0 mm 1 mps 754 mmHg 23%
    19:00 +35°C° 0 mm 1 mps 754 mmHg 25%
    20:00 +34°C° 0 mm 2 mps 755 mmHg 27%
    21:00 +31°C° 0 mm 2 mps 756 mmHg 29%
    22:00 +30°C° 0 mm 2 mps 756 mmHg 30%
    23:00 +30°C° 0 mm 2 mps 756 mmHg 30%

    24 June, Sunday

    Time Temperature Precipitation Wind Pressure Humidity
    00:00 +29°C° 0 mm 2 mps 756 mmHg 31%
    01:00 +29°C° 0 mm 2 mps 756 mmHg 31%
    02:00 +28°C° 0 mm 2 mps 756 mmHg 32%
    03:00 +28°C° 0 mm 3 mps 756 mmHg 32%
    04:00 +28°C° 0 mm 3 mps 757 mmHg 32%
    05:00 +29°C° 0 mm 3 mps 757 mmHg 32%
    06:00 +29°C° 0 mm 3 mps 757 mmHg 32%
    07:00 +32°C° 0 mm 4 mps 757 mmHg 30%
    08:00 +34°C° 0 mm 4 mps 757 mmHg 27%
    09:00 +35°C° 0 mm 4 mps 757 mmHg 24%
    10:00 +36°C° 0 mm 3 mps 757 mmHg 23%
    11:00 +38°C° 0 mm 3 mps 756 mmHg 22%
    12:00 +39°C° 0 mm 2 mps 756 mmHg 20%
    13:00 +39°C° 0 mm 2 mps 756 mmHg 20%
    14:00 +40°C° 0 mm 2 mps 756 mmHg 19%
    15:00 +42°C° 0 mm 3 mps 755 mmHg 18%
    16:00 +40°C° 0 mm 3 mps 756 mmHg 19%
    17:00 +40°C° 0 mm 3 mps 756 mmHg 19%
    18:00 +41°C° 0 mm 4 mps 756 mmHg 20%
    19:00 +38°C° 0 mm 4 mps 757 mmHg 23%
    20:00 +36°C° 0 mm 4 mps 757 mmHg 25%
    21:00 +33°C° 0 mm 4 mps 758 mmHg 28%
    22:00 +33°C° 0 mm 3 mps 758 mmHg 29%
    23:00 +31°C° 0 mm 3 mps 758 mmHg 30%

    25 June, Monday

    Time Temperature Precipitation Wind Pressure Humidity
    00:00 +30°C° 0 mm 2 mps 758 mmHg 32%
    01:00 +29°C° 0 mm 2 mps 758 mmHg 32%
    02:00 +29°C° 0 mm 1 mps 758 mmHg 33%
    03:00 +28°C° 0 mm 1 mps 758 mmHg 33%
    04:00 +29°C° 0 mm 1 mps 758 mmHg 32%
    05:00 +30°C° 0 mm 1 mps 759 mmHg 32%
    06:00 +31°C° 0 mm 1 mps 759 mmHg 31%
    07:00 +32°C° 0 mm 1 mps 759 mmHg 29%
    08:00 +34°C° 0 mm 1 mps 758 mmHg 26%
    09:00 +35°C° 0 mm 1 mps 758 mmHg 24%
    10:00 +37°C° 0 mm 2 mps 758 mmHg 23%
    11:00 +39°C° 0 mm 3 mps 758 mmHg 22%
    12:00 +41°C° 0 mm 4 mps 757 mmHg 21%
    13:00 +42°C° 0 mm 4 mps 757 mmHg 21%
    14:00 +42°C° 0 mm 5 mps 757 mmHg 20%
    15:00 +44°C° 0 mm 6 mps 757 mmHg 19%
    16:00 +42°C° 0 mm 6 mps 757 mmHg 19%
    17:00 +42°C° 0 mm 6 mps 757 mmHg 19%
    18:00 +41°C° 0 mm 6 mps 757 mmHg 19%
    19:00 +39°C° 0 mm 5 mps 757 mmHg 21%
    20:00 +36°C° 0 mm 4 mps 758 mmHg 22%
    21:00 +33°C° 0 mm 3 mps 758 mmHg 24%
    22:00 +33°C° 0 mm 3 mps 758 mmHg 25%
    23:00 +31°C° 0 mm 2 mps 758 mmHg 27%
    Show more